Whitefield, NH

2:50 PM EDT on May 29, 2017 (GMT -0400)
Mount Washington Regional

Weather History for KHIE - April, 2013

Change the Weather History Date:

Saturday, April 6, 2013

  Actual Average Record
Temperature  
Mean Temperature 28 °F -  
Max Temperature 37 °F 44 °F 64 °F (1999)
Min Temperature 19 °F 21 °F 6 °F (2016)
Degree Days  
Heating Degree Days 38    
Moisture  
Dew Point 10 °F    
Average Humidity 53    
Maximum Humidity 80    
Minimum Humidity 24    
Precipitation  
Precipitation 0.00 in - - ()
Sea Level Pressure  
Sea Level Pressure 30.12 in    
Wind  
Wind Speed 12 mph (WNW)    
Max Wind Speed 20 mph    
Max Gust Speed 28 mph    
Visibility 9 miles    
Events Snow    
Averages and records for this station are not official NWS values.
T = Trace of Precipitation, MM = Missing Value Source: NWS Daily Summary

Daily Weather History Graph

Daily Weather History Graph

Search for Another Location

Airport or City:

Trip Planner

Search our weather history database for the weather conditions in past years. The results will help you decide how hot, cold, wet, or windy it might be!

Date:

Astronomy

Apr. 06, 2013 Rise Set
Actual Time 6:17 AM EDT 7:19 PM EDT
Civil Twilight 5:48 AM EDT 7:49 PM EDT
Nautical Twilight 5:12 AM EDT 8:25 PM EDT
Astronomical Twilight 4:35 AM EDT 9:02 PM EDT
Moon 4:08 AM EDT (4/6) 3:38 PM EDT (4/6)
Length of Visible Light 14h 01m
Length of Day
13h 02m
Waning Crescent, 15% of the Moon is Illuminated
Apr 6
Waning Crescent
Apr 10
New
Apr 18
First Quarter
Apr 25
Full
May 2
Last Quarter

Hourly Weather History & Observations

Time (EDT) Temp. Windchill Dew Point Humidity Pressure Visibility Wind Dir Wind Speed Gust Speed Precip Events Conditions
12:52 AM 28.9 °F 19.2 °F 16.0 °F 58% 29.91 in 10.0 mi NW 11.5 mph - N/A   Overcast
1:29 AM 28.4 °F 16.2 °F 17.6 °F 64% 29.89 in 5.0 mi NW 17.3 mph 21.9 mph 0.00 in Snow Light Snow
1:50 AM 26.6 °F 16.8 °F 17.6 °F 69% 29.90 in 9.0 mi West 10.4 mph - 0.00 in   Overcast
1:52 AM 27.0 °F 18.7 °F 18.0 °F 69% 29.93 in 9.0 mi WNW 8.1 mph - 0.00 in   Overcast
2:26 AM 26.6 °F 16.8 °F 19.4 °F 74% 29.91 in 5.0 mi NW 10.4 mph - 0.00 in Snow Light Snow
2:46 AM 24.8 °F 11.5 °F 19.4 °F 80% 29.91 in 1.8 mi NW 17.3 mph 24.2 mph 0.00 in Snow Light Snow
2:52 AM 25.0 °F 12.6 °F 18.0 °F 75% 29.95 in 1.5 mi WNW 15.0 mph 25.3 mph 0.00 in Snow Light Snow
2:55 AM 24.8 °F 11.9 °F 17.6 °F 74% 29.92 in 2.0 mi WNW 16.1 mph 25.3 mph 0.00 in Snow Light Snow
3:03 AM 24.8 °F 12.4 °F 15.8 °F 69% 29.92 in 9.0 mi WNW 15.0 mph 24.2 mph 0.00 in Snow Light Snow
3:13 AM 24.8 °F 12.9 °F 15.8 °F 69% 29.93 in 10.0 mi WNW 13.8 mph - 0.00 in   Partly Cloudy
3:52 AM 23.0 °F 14.7 °F 12.9 °F 65% 30.00 in 10.0 mi WNW 6.9 mph - 0.00 in   Mostly Cloudy
4:52 AM 21.0 °F 9.3 °F 7.0 °F 55% 30.04 in 10.0 mi WNW 11.5 mph 18.4 mph 0.00 in   Scattered Clouds
5:52 AM 21.0 °F 13.4 °F 7.0 °F 55% 30.09 in 10.0 mi Variable 5.8 mph - N/A   Overcast
6:52 AM 19.9 °F 9.3 °F 3.9 °F 50% 30.13 in 10.0 mi WNW 9.2 mph 24.2 mph N/A   Mostly Cloudy
7:52 AM 19.9 °F 7.3 °F 10.0 °F 65% 30.17 in 10.0 mi NNW 12.7 mph - N/A   Overcast
8:19 AM 19.4 °F 5.5 °F 10.4 °F 68% 30.13 in 9.0 mi NNW 15.0 mph 24.2 mph 0.00 in   Overcast
8:52 AM 21.0 °F 5.7 °F 7.0 °F 55% 30.19 in 10.0 mi NW 19.6 mph 26.5 mph 0.00 in   Mostly Cloudy
8:59 AM 21.2 °F 6.8 °F 6.8 °F 54% 30.13 in 10.0 mi NW 17.3 mph 26.5 mph N/A   Mostly Cloudy
9:52 AM 23.0 °F 11.1 °F 6.1 °F 48% 30.21 in 10.0 mi WNW 12.7 mph 20.7 mph N/A   Scattered Clouds
10:52 AM 26.1 °F 16.8 °F 3.0 °F 37% 30.22 in 10.0 mi West 9.2 mph 20.7 mph N/A   Partly Cloudy
11:52 AM 28.9 °F 16.9 °F 3.0 °F 33% 30.23 in 10.0 mi WNW 17.3 mph 23.0 mph N/A   Clear
12:52 PM 30.9 °F 19.1 °F 1.9 °F 29% 30.23 in 10.0 mi NW 18.4 mph 27.6 mph N/A   Clear
1:52 PM 33.1 °F 23.0 °F 1.9 °F 27% 30.23 in 10.0 mi NW 15.0 mph 25.3 mph N/A   Clear
2:52 PM 34.0 °F 26.0 °F 1.9 °F 26% 30.23 in 10.0 mi West 10.4 mph 23.0 mph N/A   Clear
3:52 PM 35.1 °F 26.9 °F 1.9 °F 25% 30.23 in 10.0 mi WNW 11.5 mph 20.7 mph N/A   Clear
4:52 PM 36.0 °F 30.3 °F 1.9 °F 24% 30.23 in 10.0 mi NNW 6.9 mph 18.4 mph N/A   Clear
5:52 PM 35.1 °F 30.1 °F 1.9 °F 25% 30.26 in 10.0 mi WNW 5.8 mph - N/A   Clear
6:52 PM 33.1 °F 27.7 °F 3.0 °F 28% 30.28 in 10.0 mi NW 5.8 mph - N/A   Clear
7:52 PM 28.9 °F - 7.0 °F 40% 30.29 in 10.0 mi Calm Calm - N/A   Clear
8:52 PM 27.0 °F - 10.0 °F 49% 30.32 in 10.0 mi Calm Calm - N/A   Clear
9:52 PM 24.1 °F - 12.0 °F 60% 30.33 in 10.0 mi Calm Calm - N/A   Clear
10:52 PM 21.9 °F - 12.9 °F 68% 30.34 in 10.0 mi Calm Calm - N/A   Clear
11:52 PM 24.1 °F - 16.0 °F 71% 30.32 in 10.0 mi Calm Calm - N/A   Overcast